User: anonymous   Login
Location: Chiroubles
(46.1812°N, 4.6660°E)
Time: 04:56:05
(UTC+00:00)
Language:

Cosmos 1570 Rocket - Orbit

View from above orbital plane
View from above orbital plane
View from above satellite
View from above satellite

Ground track
Ground track

The orbit data is extracted from the following two-line orbital elements,

1 15032U 84056B   20304.50895520  .00000077  00000-0  36294-4 0  9999
2 15032  74.0713 345.0574 0017688 200.7243 159.3194 14.34810303903518
Epoch (UTC): 30 October 2020 12:12:53
Eccentricity: 0.0017688
inclination: 74.0713°
perigee height: 763 km
apogee height: 788 km
right ascension of ascending node: 345.0574°
argument of perigee: 200.7243°
revolutions per day: 14.34810303
mean anomaly at epoch: 159.3194°
orbit number at epoch: 90351

The dashed part of the orbit path shows where the satellite is in the earth's shadow,  

DLR